Home   Weather   Mülheim / Ruhr   Past weeks

Flag for Germany Past Weather in Mülheim / Ruhr, North Rhine-Westphalia, Germany — Yesterday and Last 2 Weeks

Now
41 °F

Passing clouds.


Feels Like: 36 °F
Forecast: 25 / 37 °F
Wind: 7 mph from Southeast

Location: Duesseldorf

Current Time: Dec 5, 2016 at 1:40:27 pm

Latest Report: Dec 5, 2016 at 1:20 pm


Visibility: N/A

Pressure: 30.30 "Hg

Humidity: 61%

Dew Point: 28 °F

Location of Mülheim / RuhrLocation

Past Weather in Mülheim / Ruhr — Graph

°F

Mülheim / Ruhr Temperature Yesterday

Maximum temperature yesterday: 43 °F (at 1:50 pm)
Minimum temperature yesterday: 18 °F (at 7:50 am)
Average temperature yesterday: 28 °F

High & Low Weather Summary for the Past Weeks

 TemperatureHumidityPressure
High59 °F (Nov 20, 1:50 pm)100% (Nov 23, 4:50 am)30.60 "Hg (Nov 23, 4:50 am)
Low18 °F (Dec 4, 7:50 am)45% (Nov 29, 2:50 pm)29.30 "Hg (Nov 20, 12:20 pm)
Average40 °F83%30.16 "Hg
* Reported Nov 20 12:20 pm — Dec 5 12:20 pm, Mülheim / Ruhr, Weather by CustomWeather, © 2016

Note: Actual official high and low records may vary slightly from our data, if they occured in-between our weather recording intervals... More about our weather records

Advertising

Mülheim / Ruhr Weather History for the Previous 24 Hours

Scroll right to see more
 ConditionsComfort  
Time TempWeatherWind HumidityBarometerVisibility
12:20 pm
Mon, Dec 5
39 °FSunny.8 mph65%30.30 "Hg10 mi
11:50 am37 °FSunny.12 mph65%30.30 "Hg10 mi
11:20 am37 °FPassing clouds.12 mph65%30.33 "HgN/A
10:50 am36 °FSunny.12 mph65%30.33 "Hg10 mi
10:20 am36 °FSunny.13 mph65%30.30 "Hg10 mi
9:50 am34 °FPassing clouds.10 mph70%30.30 "HgN/A
9:20 am32 °FSunny.7 mph69%30.30 "Hg10 mi
8:50 am32 °FSunny.9 mph69%30.30 "Hg10 mi
8:20 am32 °FPassing clouds.9 mph69%30.30 "HgN/A
7:50 am32 °FClear.9 mph69%30.30 "Hg10 mi
7:20 am32 °FPassing clouds.10 mph69%30.30 "HgN/A
6:50 am32 °FClear.10 mph69%30.30 "Hg10 mi
6:20 am32 °FClear.8 mph69%30.30 "Hg10 mi
5:50 am32 °FPassing clouds.8 mph64%30.30 "HgN/A
5:20 am32 °FClear.8 mph64%30.30 "Hg10 mi
4:50 am32 °FPassing clouds.8 mph64%30.30 "HgN/A
4:20 am34 °FClear.10 mph60%30.30 "Hg10 mi
3:50 am34 °FClear.12 mph60%30.30 "Hg10 mi
3:20 am32 °FPassing clouds.8 mph64%30.30 "HgN/A
2:50 am32 °FClear.9 mph64%30.30 "Hg10 mi
2:20 am32 °FClear.7 mph64%30.30 "Hg10 mi
1:50 am30 °FClear.7 mph69%30.30 "Hg10 mi
1:20 am32 °FClear.9 mph64%30.30 "Hg10 mi
12:50 am32 °FClear.9 mph60%30.33 "Hg10 mi
12:20 am32 °FClear.8 mph64%30.33 "Hg10 mi
11:50 pm
Sun, Dec 4
32 °FClear.9 mph64%30.33 "Hg10 mi
11:20 pm32 °FClear.9 mph64%30.33 "Hg10 mi
10:50 pm32 °FClear.7 mph64%30.33 "Hg10 mi
10:20 pm30 °FClear.6 mph64%30.33 "Hg10 mi
9:50 pm27 °FClear.6 mph86%30.33 "Hg10 mi
9:20 pm25 °FPassing clouds.3 mph93%30.33 "HgN/A
8:50 pm27 °FPassing clouds.3 mph93%30.33 "HgN/A
8:20 pm27 °FClear.2 mph86%30.33 "Hg10 mi
7:50 pm28 °FPassing clouds.5 mph86%30.33 "HgN/A
7:20 pm30 °FPassing clouds.5 mph75%30.33 "HgN/A
6:50 pm30 °FClear.5 mph86%30.33 "Hg10 mi
6:20 pm30 °FClear.3 mph80%30.33 "Hg10 mi
5:50 pm30 °FClear.3 mph80%30.33 "Hg10 mi
5:20 pm28 °FClear.2 mph93%30.33 "Hg10 mi
4:50 pm32 °FClear.2 mph80%30.33 "Hg10 mi
4:20 pm36 °FSunny.2 mph75%30.33 "Hg10 mi
3:50 pm41 °FSunny.3 mph57%30.33 "Hg10 mi
3:20 pm41 °FSunny.2 mph57%30.33 "Hg10 mi
2:50 pm41 °FSunny.2 mph57%30.33 "Hg10 mi
2:20 pm41 °FSunny.2 mph57%30.33 "Hg10 mi
1:50 pm43 °FSunny.1 mph57%30.33 "Hg10 mi
1:20 pm41 °FSunny.2 mph61%30.33 "Hg10 mi
Weather by CustomWeather, © 2016

See weather overviewHow to use our weather pages